Vertical_Velocity
1 2 2 2 2 3 3 4 4 4 4 3 2 1 0 0 1 2 5 7 6 4 2 1 0 2 3 5 5 4 3 3 3 4 3 1 0 2 4 4 3 1 -0 -2 -2 -2 -2 -2 -1 -1 -2 -2 2 7 8 0 -1 -0 2 2 2 4 7 10 13 13 11 5 7
2 2 2 2 3 3 3 4 4 4 4 4 3 1 -0 -1 -1 0 3 6 6 6 5 2 2 3 4 4 5 4 4 4 4 4 2 1 2 4 6 4 2 0 0 0 1 1 0 -0 -0 -1 -2 -2 4 7 8 3 1 1 1 0 -1 1 5 8 10 12 10 5 3
2 2 2 2 2 2 2 2 3 4 4 3 3 2 0 -1 -1 -1 1 3 5 6 5 4 4 4 4 3 3 4 5 6 5 3 1 0 3 4 4 2 1 1 2 3 3 3 2 2 1 0 -0 0 7 10 10 5 3 2 1 1 -1 -1 2 5 7 8 8 8 5
2 2 2 1 1 1 1 1 2 2 2 2 2 1 1 -1 -1 -1 -1 1 2 2 2 3 4 4 3 2 2 4 5 5 4 3 1 1 3 3 3 2 2 2 3 4 4 3 3 3 2 1 1 2 7 7 5 1 4 3 2 2 0 -1 -1 1 4 5 6 6 5
1 1 1 1 1 1 1 1 1 1 1 1 0 -0 -0 -0 -1 -2 -2 -1 -1 -1 -1 0 3 4 4 3 2 2 3 4 3 2 1 2 3 3 2 2 2 2 2 4 3 3 3 3 2 2 1 1 6 4 1 0 3 3 2 1 1 0 -1 -2 -0 2 3 4 5
0 0 0 1 0 0 0 0 -0 -0 -1 -1 -1 -1 -1 -0 -1 -1 -2 -2 -3 -4 -4 -3 1 4 6 4 2 1 2 3 2 2 2 2 2 2 1 0 1 2 3 3 3 3 3 3 3 2 2 2 3 2 2 2 2 2 1 1 -0 -0 0 -0 -1 -0 1 2 6
0 0 0 1 0 0 -0 -1 -1 -1 -2 -2 -2 -1 -1 -0 -0 -1 -2 -2 -3 -4 -4 -3 2 5 6 4 1 1 2 3 3 3 3 2 2 1 1 1 2 4 4 4 4 3 3 4 4 3 3 4 6 5 4 3 1 1 1 0 -2 -1 1 -1 -0 0 2 4 7
0 0 0 1 1 0 0 -0 -0 -1 -1 -1 -1 -1 -1 -1 -2 -2 -2 -1 -2 -2 -2 0 2 3 3 2 1 1 2 3 2 2 2 2 2 2 3 4 4 4 4 5 4 4 3 5 5 5 6 7 7 6 4 3 0 0 1 0 -2 -1 -0 -1 -0 1 1 3 5
-0 -0 0 0 0 1 1 1 1 1 0 -0 -0 -1 -1 -2 -3 -3 -1 0 2 2 3 4 1 -1 -1 0 1 2 2 2 2 1 2 3 3 4 4 6 6 5 5 5 4 4 4 5 6 6 7 9 8 8 9 7 3 1 0 1 -0 -1 -1 -0 0 0 0 0 1
-1 -1 -0 -0 0 0 1 0 1 0 0 -0 -1 -1 -2 -3 -2 0 3 5 8 6 4 2 2 1 0 1 1 2 2 2 2 2 2 3 4 4 5 6 6 5 4 5 4 4 4 5 6 6 6 8 7 8 11 12 9 5 2 1 2 1 -0 0 1 -0 -1 -1 0
-1 -1 -1 -0 -0 -0 -0 -1 -1 -1 -1 -2 -2 -2 -3 -3 -0 2 4 5 4 1 -1 1 3 4 3 3 2 1 1 2 2 3 3 3 4 4 5 5 5 5 4 3 3 3 2 3 4 4 4 4 3 3 4 8 9 8 6 2 2 1 0 0 1 -0 -1 -0 3
-1 -0 -0 -0 -0 -0 -1 -2 -3 -3 -3 -4 -3 -2 -1 -1 0 1 -0 -0 -3 -4 -3 1 4 4 4 4 2 2 2 3 3 2 2 1 2 3 3 3 3 2 2 1 2 1 1 1 2 2 1 1 0 -1 -1 2 7 8 5 0 1 1 1 1 1 -0 -1 -1 2
-0 -0 -0 0 -0 -1 -2 -3 -4 -4 -4 -3 -1 -0 -0 -1 -1 -1 -2 -3 -3 -3 -1 1 3 3 3 2 3 3 2 2 2 1 0 -0 0 1 1 1 1 0 -1 -1 -0 -1 -1 -1 0 0 -1 -2 -2 -3 -3 -0 3 2 0 -3 -2 -1 0 2 1 -0 -2 -2 -1
-1 -0 -0 -0 -1 -2 -3 -4 -4 -3 -2 -1 0 1 0 -1 -1 -1 -1 -1 -1 -1 -0 0 1 2 1 1 2 2 1 1 -0 -1 -2 -2 -1 -0 0 0 -0 -1 -2 -3 -2 -3 -3 -3 -2 -2 -2 -3 -3 -1 2 7 12 14 13 8 2 -0 1 4 2 0 -1 -2 -2
-2 -1 -1 -1 -2 -3 -4 -4 -3 -1 -1 -0 0 1 1 1 1 1 0 -0 -1 -0 -0 -0 -0 -0 -0 0 1 0 0 -0 -1 -2 -3 -3 -2 -1 -0 -0 -1 -2 -2 -3 -3 -4 -5 -5 -4 -3 -3 -3 1 10 18 19 24 30 33 28 16 10 7 5 3 1 0 -1 -1
-2 -2 -2 -1 -2 -3 -3 -2 -0 0 0 -0 1 1 2 2 2 2 1 0 -0 -0 -0 -0 -0 -0 0 1 1 0 -0 -0 -1 -1 -2 -2 -1 -0 -0 -1 -2 -2 -2 -1 -2 -3 -4 -5 -4 -3 -2 -2 8 24 33 26 21 22 23 20 14 11 9 5 3 2 2 1 1
-2 -1 -1 -1 -2 -2 -1 0 1 1 1 1 2 2 2 2 2 2 2 1 0 0 0 -0 1 1 1 1 1 1 -0 -0 -0 -0 -1 -1 -1 -0 -1 -1 -2 -2 -2 -1 -1 -2 -3 -4 -3 -2 -1 -0 8 24 36 36 26 16 8 -0 4 7 8 4 3 2 0 -0 -0
-1 -1 -1 -1 -1 -1 -0 1 2 2 2 2 2 2 2 2 2 1 1 1 1 1 1 1 1 2 2 1 1 1 0 -1 -1 -1 -1 -1 -1 -1 -1 -2 -2 -2 -2 -1 -1 -1 -1 -3 -2 -2 -2 -1 3 14 29 44 40 29 14 2 5 7 7 4 6 3 -0 -2 -1
-2 -1 -1 -2 -1 -0 1 1 1 2 2 2 2 2 1 1 0 -0 -1 -1 0 1 1 1 1 2 2 1 1 0 -0 -1 -2 -1 -1 -1 -1 -2 -2 -3 -3 -2 -0 0 -0 -1 -1 -1 -2 -1 -1 -1 1 8 20 37 45 41 28 14 10 8 6 5 7 5 1 -2 -1
-2 -1 -1 -1 -1 -0 0 1 1 1 1 1 1 -0 -1 -1 -2 -2 -1 -1 -0 0 0 0 1 1 1 1 0 -1 -1 -2 -2 -2 -2 -2 -2 -3 -4 -4 -3 0 3 2 -1 -2 -1 -1 -1 1 3 5 6 9 15 23 37 40 34 20 15 10 7 7 7 4 0 -2 -0
-1 -0 0 1 0 0 -0 -0 -0 -0 -0 -1 -1 -2 -3 -3 -3 -2 -2 -1 -1 -1 -1 -1 -0 0 0 0 -1 -2 -3 -3 -2 -2 -3 -3 -3 -3 -3 -2 1 4 4 0 -2 -3 -3 -2 2 5 8 9 9 10 11 11 20 27 28 22 17 12 8 8 10 6 2 -1 -0
0 1 1 1 1 -0 -0 -1 -1 -1 -1 -2 -3 -3 -3 -3 -3 -3 -2 -2 -2 -2 -2 -2 -1 -1 -1 -1 -1 -2 -3 -4 -3 -3 -3 -3 -3 -3 -2 -1 1 1 -1 -4 -4 -4 -2 1 6 9 10 8 6 5 4 4 7 12 16 16 14 12 12 13 12 8 3 -1 0
1 1 1 0 -0 -1 -1 -1 -2 -2 -2 -3 -4 -4 -4 -4 -3 -4 -4 -4 -4 -4 -4 -4 -3 -2 -2 -2 -2 -2 -3 -4 -4 -4 -3 -2 -2 -1 -1 -0 -1 -2 -4 -6 -5 -4 -0 5 10 12 11 7 4 3 2 0 1 2 4 5 6 9 14 20 13 6 1 -1 1
1 0 -0 -1 -1 -1 -1 -2 -2 -3 -3 -4 -4 -4 -4 -4 -4 -5 -5 -6 -6 -5 -5 -4 -4 -3 -2 -2 -2 -2 -3 -4 -4 -4 -3 -2 -1 -0 -0 -1 -2 -4 -4 -4 -3 -2 2 8 15 21 23 19 12 9 8 10 6 2 0 1 1 2 5 8 5 1 -1 -0 1
-0 -1 -1 -1 -1 -1 -2 -2 -3 -4 -4 -4 -4 -4 -4 -4 -5 -5 -6 -6 -6 -5 -5 -4 -4 -3 -2 -2 -2 -2 -3 -4 -4 -4 -3 -2 -1 -1 -1 -2 -3 -3 -3 -2 -0 1 2 7 17 31 43 49 40 34 29 25 15 6 1 1 1 -0 -1 -2 -2 -1 0 2 2
-1 -1 -1 -1 -1 -1 -2 -3 -4 -4 -4 -5 -4 -4 -4 -5 -5 -5 -6 -6 -6 -5 -4 -4 -3 -3 -2 -2 -2 -3 -3 -3 -2 -2 -1 -1 -1 -2 -2 -2 -2 -1 1 3 4 4 3 2 11 25 40 50 45 41 37 31 18 10 5 5 3 2 1 0 1 2 3 3 3
-0 -0 -0 -1 -1 -2 -3 -3 -4 -4 -4 -4 -4 -5 -5 -5 -5 -5 -5 -5 -5 -4 -4 -3 -3 -2 -2 -2 -2 -2 -2 -2 -1 0 1 1 -0 -1 -3 -3 -1 2 6 9 12 14 14 8 8 13 19 22 21 21 21 18 12 9 8 7 4 3 2 3 3 3 3 3 3
-0 -0 -1 -1 -2 -3 -3 -4 -4 -4 -4 -4 -4 -5 -5 -6 -6 -5 -5 -5 -4 -4 -4 -3 -2 -2 -1 -1 -1 -1 -1 -0 -0 0 1 2 3 2 1 -1 -1 1 5 10 20 28 28 17 6 4 5 7 9 8 6 2 0 1 2 3 3 3 3 2 2 3 4 4 3
-0 -1 -1 -2 -3 -3 -4 -4 -4 -4 -4 -4 -5 -5 -6 -6 -6 -6 -6 -5 -5 -4 -3 -3 -2 -1 -1 -1 -1 -1 -1 -2 -2 -2 -2 -2 -1 0 1 -0 -2 -2 -0 3 9 13 13 7 -0 -2 -1 1 3 2 1 -1 -1 -0 0 1 2 3 3 3 3 3 3 3 2
-0 -1 -2 -3 -3 -4 -4 -4 -3 -4 -4 -4 -5 -6 -7 -7 -7 -7 -6 -5 -4 -4 -3 -2 -2 -1 -1 -2 -2 -3 -4 -5 -5 -5 -6 -6 -6 -5 -4 -4 -4 -3 -3 -1 -0 0 -0 -1 -1 -1 -1 -1 -1 -0 -0 -0 -0 0 1 1 1 2 2 2 2 2 2 2 2
-1 -2 -3 -3 -4 -4 -4 -4 -4 -4 -5 -5 -6 -7 -7 -8 -7 -7 -6 -5 -4 -4 -3 -3 -3 -3 -3 -4 -4 -5 -6 -6 -6 -6 -6 -6 -5 -4 -3 -2 -2 -2 -2 -1 -1 -1 -1 -0 -0 -1 -1 -1 0 1 1 2 1 1 1 0 0 0 1 1 1 2 2 3 3
-2 -2 -3 -3 -4 -4 -4 -4 -4 -5 -5 -6 -6 -7 -7 -7 -7 -6 -6 -6 -6 -5 -5 -5 -5 -5 -5 -4 -5 -5 -5 -6 -6 -6 -6 -5 -4 -4 -3 -2 -1 -1 -1 -0 -1 -1 -0 -0 -0 0 1 1 2 3 3 2 2 1 0 0 -0 0 0 1 2 2 2 3 2
-2 -2 -3 -3 -3 -3 -4 -4 -4 -4 -4 -5 -5 -6 -6 -6 -7 -7 -7 -7 -7 -7 -6 -6 -5 -5 -5 -5 -5 -5 -5 -5 -5 -5 -5 -4 -3 -3 -2 -1 -1 -1 -0 -0 -0 0 0 1 1 1 2 2 2 2 2 1 1 0 0 -0 0 0 1 1 2 2 2 2 1
-2 -2 -2 -2 -2 -3 -3 -3 -3 -3 -3 -3 -4 -5 -6 -6 -7 -7 -7 -7 -7 -6 -6 -5 -5 -5 -5 -6 -6 -6 -6 -6 -5 -5 -4 -3 -3 -2 -2 -1 -1 -1 -0 -0 0 1 1 1 2 2 2 1 1 1 1 0 0 0 -0 -0 0 1 1 1 1 1 1 1 0
-1 -1 -1 -1 -1 -1 -2 -2 -2 -2 -2 -3 -4 -4 -5 -5 -6 -6 -6 -6 -6 -5 -5 -5 -6 -6 -7 -8 -8 -8 -7 -6 -6 -5 -4 -3 -3 -2 -2 -1 -1 -1 -1 -0 0 0 1 1 1 1 1 0 0 0 -0 -0 -0 -0 -0 -0 -0 0 0 0 0 -0 -0 -0 -1
-0 -0 -0 -0 -0 -0 -1 -1 -2 -2 -2 -3 -3 -4 -4 -4 -4 -4 -4 -5 -5 -5 -6 -6 -7 -8 -9 -9 -9 -8 -8 -6 -6 -5 -4 -4 -3 -3 -2 -2 -2 -2 -2 -1 -1 -1 -0 -0 -0 -0 -0 -0 -1 -1 -1 -1 -1 -1 -1 -1 -1 -0 -0 -0 -1 -1 -1 -1 -1
0 0 1 1 1 0 0 -0 -1 -2 -2 -2 -3 -3 -4 -4 -4 -4 -4 -4 -5 -6 -6 -7 -7 -8 -8 -8 -8 -7 -6 -6 -5 -5 -4 -4 -3 -3 -3 -2 -2 -2 -2 -2 -1 -1 -1 -1 -1 -1 -1 -1 -1 -1 -1 -1 -1 -1 -1 -1 -0 -0 -0 -0 -0 -1 -1 -1 -0
1 1 1 1 1 1 0 -0 -1 -1 -2 -2 -2 -3 -3 -4 -4 -4 -4 -5 -5 -6 -6 -7 -7 -7 -7 -6 -6 -5 -5 -4 -4 -4 -3 -3 -3 -3 -2 -2 -2 -2 -2 -2 -2 -2 -1 -1 -1 -1 -1 -2 -2 -2 -1 -1 -1 -1 -0 0 1 1 1 1 1 1 2 3 4
1 1 1 1 1 1 0 0 -0 -1 -2 -2 -2 -3 -3 -4 -4 -4 -4 -4 -5 -5 -6 -6 -6 -6 -6 -6 -5 -4 -4 -4 -4 -3 -2 -2 -2 -2 -2 -2 -2 -2 -2 -2 -2 -2 -2 -2 -1 -1 -1 -1 -1 -1 -1 -0 0 1 1 1 1 0 1 1 2 3 4 5 6
1 1 1 1 1 1 1 1 0 -1 -1 -2 -2 -3 -3 -4 -4 -4 -4 -4 -4 -4 -5 -5 -5 -6 -5 -5 -5 -5 -5 -4 -4 -3 -2 -1 -1 -1 -2 -2 -2 -1 -1 -1 -1 -1 -1 -1 -1 -1 -1 -1 -0 -0 0 1 1 0 -0 -1 -0 0 1 2 4 5 6 6 6
0 0 0 1 1 1 1 1 0 -0 -1 -2 -2 -3 -3 -4 -4 -4 -4 -4 -4 -4 -4 -4 -4 -4 -5 -5 -5 -5 -5 -5 -4 -3 -2 -1 -1 -1 -2 -2 -2 -2 -1 -1 -1 -1 -1 -1 -0 -0 -0 0 0 1 1 0 -0 -1 -1 -0 1 3 4 5 5 6 6 6 5
Height
5732 5732 5732 5732 5731 5731 5731 5731 5731 5730 5730 5730 5729 5729 5728 5728 5728 5728 5728 5727 5727 5726 5725 5725 5725 5724 5724 5723 5722 5721 5720 5720 5720 5719 5718 5718 5718 5718 5718 5718 5717 5716 5716 5715 5715 5715 5715 5715 5715 5715 5714 5714 5714 5714 5714 5714 5715 5716 5716 5717 5718 5719 5719 5720 5719 5718 5717 5717 5717
5729 5729 5729 5729 5729 5729 5729 5729 5728 5728 5727 5727 5726 5725 5725 5724 5724 5724 5724 5724 5723 5723 5722 5721 5721 5720 5720 5719 5718 5717 5717 5716 5715 5715 5714 5714 5714 5714 5714 5713 5712 5712 5712 5712 5711 5711 5711 5711 5711 5710 5710 5710 5710 5710 5710 5710 5711 5711 5711 5712 5714 5715 5715 5715 5714 5714 5714 5714 5714
5727 5726 5726 5726 5726 5726 5726 5725 5725 5725 5724 5724 5723 5722 5721 5721 5720 5720 5720 5720 5720 5719 5718 5718 5717 5716 5716 5715 5714 5713 5713 5712 5711 5710 5709 5709 5709 5709 5708 5708 5707 5707 5708 5708 5707 5707 5707 5707 5707 5706 5706 5705 5706 5706 5705 5705 5706 5707 5707 5707 5708 5710 5710 5710 5709 5710 5710 5710 5710
5724 5724 5724 5724 5723 5723 5723 5722 5722 5721 5721 5720 5720 5719 5718 5718 5717 5717 5716 5716 5715 5715 5714 5714 5713 5712 5711 5710 5710 5709 5708 5707 5706 5705 5704 5704 5704 5704 5703 5703 5702 5703 5703 5703 5703 5703 5703 5703 5702 5702 5701 5701 5701 5700 5700 5700 5701 5702 5702 5702 5703 5705 5705 5705 5705 5706 5706 5705 5706
5721 5721 5721 5720 5720 5720 5719 5719 5719 5718 5717 5717 5716 5716 5715 5715 5714 5713 5712 5712 5711 5710 5710 5709 5709 5708 5707 5706 5705 5704 5703 5702 5701 5700 5700 5699 5699 5698 5697 5697 5697 5697 5697 5697 5697 5697 5697 5698 5698 5697 5697 5696 5695 5695 5695 5695 5696 5697 5697 5698 5699 5699 5700 5700 5701 5701 5702 5702 5702
5718 5718 5718 5717 5717 5716 5716 5715 5715 5715 5714 5714 5713 5712 5712 5711 5710 5709 5709 5708 5707 5706 5705 5705 5705 5704 5702 5701 5700 5699 5698 5697 5696 5695 5695 5694 5693 5692 5691 5691 5691 5691 5691 5691 5691 5691 5692 5692 5692 5692 5692 5692 5691 5690 5690 5691 5691 5691 5692 5693 5694 5695 5695 5696 5697 5698 5699 5699 5699
5715 5715 5715 5714 5714 5713 5713 5712 5712 5711 5711 5710 5710 5709 5708 5707 5706 5705 5705 5704 5702 5701 5700 5700 5700 5699 5698 5696 5695 5694 5693 5692 5691 5690 5689 5688 5687 5686 5686 5685 5685 5685 5685 5685 5685 5685 5686 5686 5687 5687 5687 5687 5688 5687 5685 5686 5686 5687 5687 5688 5689 5690 5691 5692 5693 5694 5695 5695 5695
5712 5712 5712 5711 5711 5710 5710 5709 5709 5708 5707 5707 5706 5705 5704 5703 5702 5701 5700 5700 5698 5698 5697 5696 5695 5694 5692 5691 5690 5688 5687 5686 5685 5684 5683 5682 5681 5680 5680 5680 5679 5679 5679 5679 5679 5680 5680 5680 5681 5682 5682 5682 5683 5683 5682 5681 5682 5683 5683 5684 5685 5685 5687 5688 5689 5690 5691 5692 5692
5709 5709 5709 5709 5708 5707 5707 5706 5705 5705 5704 5703 5702 5701 5700 5699 5698 5697 5697 5696 5695 5694 5692 5691 5690 5688 5687 5685 5684 5682 5681 5680 5678 5677 5676 5675 5675 5674 5674 5673 5673 5673 5673 5673 5673 5674 5674 5675 5675 5676 5677 5677 5678 5679 5678 5678 5678 5679 5679 5679 5680 5681 5682 5683 5685 5685 5686 5687 5688
5707 5706 5706 5706 5705 5704 5704 5703 5702 5701 5700 5700 5698 5697 5696 5695 5694 5694 5693 5693 5691 5689 5687 5686 5685 5682 5680 5679 5677 5676 5674 5673 5671 5670 5670 5669 5668 5668 5667 5667 5667 5667 5666 5666 5667 5668 5668 5669 5670 5670 5671 5672 5672 5673 5674 5674 5675 5675 5674 5675 5676 5677 5678 5679 5680 5681 5682 5683 5683
5704 5704 5703 5703 5702 5701 5700 5700 5699 5698 5697 5696 5695 5693 5692 5691 5691 5690 5690 5688 5686 5684 5682 5681 5679 5677 5675 5673 5671 5670 5668 5666 5665 5664 5663 5662 5662 5661 5661 5661 5661 5660 5660 5661 5661 5662 5663 5663 5664 5665 5665 5666 5666 5667 5668 5670 5670 5670 5670 5670 5671 5672 5673 5674 5675 5677 5678 5679 5679
5701 5701 5700 5700 5699 5698 5697 5696 5695 5694 5693 5692 5691 5690 5689 5688 5687 5686 5684 5682 5680 5678 5676 5675 5674 5671 5669 5667 5665 5664 5662 5661 5660 5658 5657 5656 5656 5656 5655 5655 5655 5655 5655 5655 5655 5656 5657 5658 5658 5659 5660 5660 5661 5662 5664 5665 5666 5666 5666 5666 5667 5668 5669 5670 5671 5672 5673 5674 5675
5699 5698 5697 5697 5696 5695 5694 5693 5692 5691 5690 5689 5688 5687 5685 5684 5682 5680 5678 5676 5674 5673 5671 5669 5667 5665 5663 5661 5660 5659 5657 5656 5655 5653 5652 5651 5651 5650 5650 5649 5649 5649 5649 5649 5649 5650 5651 5652 5653 5654 5655 5655 5657 5658 5660 5662 5663 5663 5663 5663 5663 5664 5665 5665 5666 5667 5668 5669 5670
5696 5695 5695 5694 5693 5692 5691 5690 5689 5688 5687 5686 5685 5683 5681 5680 5677 5675 5673 5671 5669 5667 5665 5664 5662 5660 5658 5657 5655 5654 5652 5651 5650 5649 5648 5647 5646 5645 5645 5644 5643 5643 5643 5643 5643 5644 5645 5646 5648 5649 5650 5652 5653 5655 5657 5659 5661 5662 5661 5660 5660 5660 5660 5660 5662 5663 5664 5665 5666
5693 5692 5691 5690 5690 5689 5688 5687 5686 5685 5684 5682 5681 5679 5677 5675 5673 5671 5669 5666 5664 5662 5661 5659 5657 5655 5653 5652 5650 5649 5648 5646 5645 5644 5643 5642 5640 5640 5639 5638 5637 5637 5637 5637 5638 5639 5640 5641 5643 5644 5646 5649 5651 5653 5654 5656 5659 5659 5657 5655 5655 5655 5655 5656 5657 5659 5660 5660 5662
5690 5689 5689 5688 5687 5686 5685 5684 5683 5682 5680 5679 5677 5675 5673 5671 5669 5667 5665 5662 5660 5658 5656 5654 5652 5650 5649 5647 5646 5645 5643 5642 5640 5639 5638 5636 5635 5634 5633 5632 5631 5631 5632 5633 5633 5634 5635 5636 5638 5640 5642 5645 5649 5650 5651 5652 5655 5655 5654 5652 5651 5651 5650 5652 5654 5655 5655 5657 5658
5687 5687 5686 5685 5684 5683 5682 5681 5680 5678 5677 5675 5674 5672 5670 5667 5665 5663 5660 5658 5655 5653 5651 5649 5647 5646 5644 5643 5641 5640 5639 5638 5636 5634 5633 5631 5630 5628 5627 5627 5627 5627 5627 5628 5629 5630 5630 5631 5633 5635 5637 5640 5643 5646 5647 5648 5649 5649 5649 5647 5646 5646 5647 5648 5650 5650 5651 5652 5654
5685 5684 5683 5682 5681 5680 5679 5678 5677 5675 5673 5672 5670 5668 5666 5664 5661 5659 5656 5654 5652 5649 5647 5645 5643 5642 5640 5639 5637 5636 5635 5634 5632 5630 5628 5626 5625 5624 5623 5622 5622 5623 5624 5625 5625 5626 5627 5628 5629 5630 5632 5635 5637 5640 5643 5645 5645 5644 5643 5642 5641 5642 5643 5644 5646 5646 5647 5648 5649
5682 5681 5680 5679 5678 5677 5676 5675 5673 5672 5670 5668 5666 5665 5662 5660 5658 5655 5653 5650 5648 5645 5643 5641 5639 5638 5636 5635 5634 5632 5631 5630 5628 5626 5624 5622 5621 5620 5619 5619 5619 5620 5621 5622 5622 5622 5623 5624 5625 5626 5628 5630 5632 5634 5637 5639 5640 5640 5639 5637 5637 5637 5638 5640 5642 5642 5643 5644 5645
5679 5679 5678 5676 5675 5674 5673 5672 5670 5669 5667 5665 5663 5661 5659 5657 5655 5652 5650 5647 5645 5642 5640 5637 5635 5634 5633 5632 5630 5629 5628 5626 5625 5623 5621 5619 5618 5617 5616 5616 5617 5618 5618 5619 5619 5619 5620 5620 5621 5622 5623 5625 5626 5628 5630 5632 5635 5636 5635 5633 5633 5633 5635 5636 5638 5638 5639 5640 5641
5677 5676 5675 5674 5673 5671 5670 5669 5667 5665 5664 5662 5660 5658 5656 5654 5651 5649 5646 5644 5641 5639 5636 5634 5633 5631 5630 5629 5628 5626 5625 5623 5622 5620 5618 5617 5615 5615 5614 5614 5615 5615 5615 5615 5615 5615 5616 5616 5617 5618 5619 5620 5621 5623 5624 5625 5628 5630 5630 5629 5629 5630 5631 5634 5635 5635 5636 5637 5638
5674 5673 5672 5671 5670 5669 5667 5665 5664 5662 5660 5659 5657 5655 5653 5651 5648 5646 5643 5640 5638 5635 5633 5631 5630 5628 5627 5626 5625 5624 5622 5621 5619 5617 5616 5615 5613 5613 5612 5612 5612 5612 5612 5612 5612 5612 5612 5613 5614 5615 5615 5617 5618 5619 5620 5621 5622 5623 5625 5625 5626 5627 5630 5632 5633 5633 5633 5633 5635
5672 5671 5670 5669 5667 5666 5664 5663 5661 5659 5658 5656 5654 5652 5650 5648 5645 5643 5640 5638 5635 5633 5631 5629 5627 5626 5625 5624 5622 5621 5620 5618 5617 5615 5614 5612 5611 5610 5610 5610 5610 5610 5610 5609 5609 5610 5610 5610 5611 5613 5615 5615 5616 5617 5618 5619 5619 5620 5621 5622 5623 5625 5628 5630 5631 5630 5630 5630 5631
5670 5669 5667 5666 5665 5663 5662 5660 5658 5656 5655 5653 5651 5649 5647 5645 5643 5640 5638 5635 5633 5630 5628 5626 5625 5624 5622 5621 5620 5618 5617 5616 5614 5613 5611 5610 5609 5608 5608 5607 5607 5607 5607 5607 5607 5607 5607 5608 5610 5613 5615 5616 5616 5617 5617 5617 5618 5618 5619 5620 5620 5622 5624 5626 5626 5626 5626 5627 5628
5667 5666 5665 5664 5662 5660 5659 5657 5656 5654 5652 5650 5649 5647 5645 5642 5640 5638 5635 5633 5630 5628 5626 5624 5623 5621 5620 5619 5617 5616 5615 5613 5612 5611 5610 5608 5607 5607 5606 5605 5605 5605 5605 5605 5605 5605 5606 5606 5608 5612 5615 5617 5617 5617 5617 5616 5615 5615 5616 5617 5618 5618 5619 5620 5621 5622 5623 5624 5625
5665 5664 5662 5661 5660 5658 5656 5655 5653 5651 5650 5648 5646 5644 5642 5640 5638 5635 5633 5630 5628 5626 5624 5622 5620 5619 5618 5616 5615 5613 5612 5611 5610 5609 5608 5607 5606 5606 5605 5604 5604 5603 5603 5603 5603 5604 5604 5605 5606 5609 5612 5614 5615 5615 5615 5615 5614 5613 5613 5614 5615 5615 5616 5617 5619 5620 5621 5622 5622
5662 5661 5660 5659 5657 5656 5654 5652 5651 5649 5647 5645 5644 5642 5640 5638 5635 5633 5631 5628 5626 5624 5622 5620 5619 5617 5615 5614 5613 5611 5610 5609 5608 5607 5606 5606 5605 5604 5604 5603 5602 5601 5601 5601 5602 5603 5604 5605 5605 5606 5607 5608 5608 5608 5609 5610 5611 5611 5611 5611 5612 5613 5614 5615 5617 5618 5619 5620 5620
5660 5659 5658 5656 5655 5653 5652 5650 5649 5647 5645 5643 5641 5640 5637 5635 5633 5631 5629 5626 5624 5622 5620 5619 5617 5615 5614 5612 5611 5610 5609 5608 5607 5606 5605 5604 5603 5603 5602 5601 5600 5600 5599 5599 5601 5604 5605 5605 5605 5604 5604 5605 5605 5605 5605 5606 5606 5607 5607 5609 5610 5611 5612 5614 5615 5616 5617 5618 5618
5658 5656 5655 5654 5653 5651 5650 5648 5646 5645 5643 5641 5639 5637 5635 5633 5631 5629 5627 5625 5622 5620 5619 5617 5615 5614 5612 5611 5610 5608 5607 5606 5605 5604 5603 5601 5601 5600 5600 5599 5598 5598 5597 5597 5599 5600 5601 5601 5601 5601 5602 5603 5603 5604 5604 5604 5605 5605 5606 5607 5608 5610 5611 5612 5613 5614 5615 5615 5616
5655 5654 5653 5652 5650 5649 5648 5646 5645 5643 5641 5639 5637 5635 5633 5631 5629 5627 5625 5623 5621 5619 5617 5615 5614 5613 5611 5610 5608 5607 5606 5605 5603 5602 5601 5600 5599 5598 5597 5596 5596 5596 5596 5596 5596 5597 5597 5598 5599 5600 5600 5601 5602 5602 5602 5603 5603 5604 5605 5606 5607 5608 5609 5610 5611 5612 5613 5613 5614
5653 5652 5651 5650 5649 5647 5646 5644 5642 5640 5639 5637 5635 5633 5631 5630 5628 5626 5624 5622 5620 5618 5616 5614 5613 5611 5610 5609 5607 5606 5605 5603 5602 5601 5600 5599 5597 5596 5596 5595 5595 5595 5595 5595 5595 5596 5596 5597 5597 5598 5599 5599 5600 5600 5601 5602 5602 5603 5604 5605 5606 5607 5608 5608 5609 5610 5611 5611 5612
5651 5650 5649 5648 5647 5645 5644 5642 5640 5639 5637 5635 5634 5632 5630 5629 5627 5625 5623 5621 5619 5617 5615 5613 5611 5610 5609 5607 5606 5605 5604 5603 5601 5600 5599 5598 5597 5596 5595 5595 5595 5594 5594 5594 5594 5595 5595 5595 5596 5596 5597 5598 5599 5600 5600 5601 5601 5602 5603 5604 5605 5605 5606 5607 5608 5608 5609 5610 5610
5649 5648 5647 5646 5645 5643 5642 5640 5639 5637 5635 5634 5632 5631 5629 5628 5626 5624 5622 5620 5618 5616 5614 5612 5611 5609 5608 5606 5605 5604 5603 5602 5601 5600 5599 5598 5597 5596 5595 5595 5594 5594 5594 5594 5594 5594 5594 5595 5595 5595 5596 5597 5598 5599 5599 5600 5600 5601 5602 5603 5603 5604 5605 5605 5606 5607 5607 5608 5608
5647 5646 5645 5644 5643 5642 5640 5639 5637 5636 5634 5633 5631 5630 5628 5627 5625 5623 5622 5620 5618 5616 5614 5612 5610 5609 5607 5606 5605 5603 5602 5601 5600 5599 5598 5597 5596 5596 5595 5594 5594 5593 5593 5593 5593 5593 5594 5594 5595 5595 5596 5596 5597 5598 5599 5599 5600 5600 5601 5602 5602 5603 5603 5604 5605 5605 5605 5606 5606
5645 5645 5644 5643 5641 5640 5639 5638 5636 5635 5633 5632 5630 5629 5627 5626 5625 5623 5621 5620 5618 5616 5614 5612 5610 5609 5607 5605 5604 5603 5602 5601 5600 5599 5598 5597 5596 5596 5595 5595 5594 5594 5593 5593 5593 5593 5594 5594 5595 5595 5596 5596 5597 5598 5598 5599 5599 5600 5600 5601 5601 5602 5602 5603 5603 5604 5604 5605 5605
5644 5643 5642 5641 5640 5639 5638 5636 5635 5634 5632 5630 5629 5628 5626 5625 5624 5622 5621 5619 5618 5616 5614 5612 5610 5609 5607 5606 5605 5604 5603 5602 5601 5600 5599 5598 5597 5596 5596 5595 5595 5594 5594 5594 5594 5594 5594 5595 5595 5595 5596 5596 5597 5597 5598 5598 5599 5599 5600 5600 5600 5601 5601 5602 5602 5602 5603 5603 5603
5642 5641 5640 5640 5638 5637 5636 5635 5634 5632 5631 5630 5628 5627 5626 5624 5623 5621 5620 5619 5617 5616 5614 5612 5611 5609 5608 5607 5606 5605 5604 5603 5602 5601 5600 5599 5599 5598 5597 5596 5596 5595 5595 5595 5595 5595 5595 5595 5596 5596 5596 5596 5597 5597 5598 5598 5598 5599 5599 5599 5600 5600 5600 5600 5601 5601 5601 5601 5601
5640 5640 5639 5638 5637 5636 5635 5634 5632 5631 5630 5628 5627 5626 5625 5623 5622 5620 5619 5618 5617 5615 5614 5612 5611 5610 5609 5607 5606 5605 5604 5603 5603 5602 5601 5600 5599 5599 5598 5598 5597 5597 5596 5596 5596 5596 5596 5596 5596 5596 5596 5596 5597 5597 5597 5597 5598 5598 5598 5599 5599 5599 5599 5599 5599 5599 5599 5600 5600
5639 5638 5637 5636 5635 5634 5633 5632 5631 5630 5628 5627 5626 5625 5623 5622 5621 5620 5618 5617 5616 5615 5613 5612 5611 5610 5609 5608 5607 5605 5605 5604 5603 5602 5601 5600 5600 5599 5598 5598 5597 5597 5597 5596 5596 5596 5596 5596 5596 5596 5596 5596 5596 5596 5597 5597 5597 5598 5598 5598 5598 5598 5598 5598 5598 5598 5598 5598 5598
5637 5636 5635 5634 5633 5632 5631 5630 5630 5628 5627 5626 5625 5623 5622 5621 5620 5619 5617 5616 5615 5614 5613 5612 5611 5610 5609 5608 5607 5606 5605 5604 5603 5602 5601 5600 5600 5599 5599 5598 5597 5597 5596 5596 5596 5596 5596 5596 5596 5596 5596 5596 5596 5596 5596 5597 5597 5597 5597 5597 5597 5597 5597 5597 5597 5597 5596 5596 5596
5635 5635 5634 5633 5632 5631 5630 5629 5628 5627 5625 5624 5623 5622 5620 5620 5619 5617 5616 5615 5614 5613 5612 5611 5610 5609 5608 5607 5606 5605 5605 5604 5603 5602 5602 5601 5600 5600 5599 5598 5598 5597 5597 5596 5596 5596 5596 5596 5596 5596 5596 5596 5596 5596 5596 5596 5596 5596 5596 5596 5596 5596 5596 5595 5595 5595 5595 5595 5595